Regional Weather Roundup
Issued by NWS

Home | Current Version | Previous Version | Text Only | Print | Product List | Glossary Off
Versions: 1 2 3 4 5 6 7 8 9 10 11 12 13 14 15 16 17 18 19 20 21 22 23 24 25 26 27 28 29 30 31 32 33 34 35 36 37 38 39 40 41 42 43 44 45 46 47 48 49 50

000
ASUS43 KLMK 290310
RWRKY
KENTUCKY REGIONAL WEATHER ROUNDUP
NATIONAL WEATHER SERVICE LOUISVILLE KY
1100 PM EDT SAT MAY 28 2016

NOTE "FAIR" INDICATES FEW OR NO CLOUDS BELOW 12,000 FEET
WITH NO SIGNIFICANT WEATHER AND/OR OBSTRUCTIONS TO VISIBILITY.

KYZ001>023-026-027-061>063-070>075-290400-
WESTERN AND SOUTH CENTRAL KENTUCKY

CITY           SKY/WX    TMP DP  RH WIND       PRES   REMARKS
PADUCAH        CLOUDY    75  66  73 S3        30.02S
HENDERSON      PTCLDY    73  64  73 S6        30.03R
OWENSBORO      PTCLDY    74  69  84 S7        30.06R
HOPKINSVILLE   NOT AVBL
BOWLING GREEN  CLOUDY    70  66  87 E3        30.09R
GLASGOW        CLOUDY    69  66  89 CALM      30.10S
$$

KYZ024-025-028>034-038-045-046-053-290400-
NORTH CENTRAL KENTUCKY

CITY           SKY/WX    TMP DP  RH WIND       PRES   REMARKS
LOUISVILLE/SDF CLOUDY    74  63  68 S5        30.07S
LOUISVILLE/LOU CLOUDY    74  63  68 CALM      30.08S
FORT KNOX      NOT AVBL
$$

KYZ035>037-039>044-047>052-055>060-089>105-290400-
NORTHEAST KENTUCKY

CITY           SKY/WX    TMP DP  RH WIND       PRES   REMARKS
LEXINGTON      PTCLDY    69  61  75 CALM      30.12R
COVINGTON      MOCLDY    70  64  81 S3        30.09S
FRANKFORT      CLOUDY    68  62  81 CALM      30.09S
$$

KYZ054-064>069-076>088-106>120-290400-
SOUTHEAST KENTUCKY

CITY           SKY/WX    TMP DP  RH WIND       PRES   REMARKS
JACKSON        PTCLDY    74  62  66 CALM      30.13S
LONDON         CLOUDY    73  64  73 W6        30.13R
SOMERSET       PTCLDY    72  63  73 CALM      30.14R
MIDDLESBORO    MOCLDY    69  63  82 CALM      30.14S
MONTICELLO     CLOUDY    68  67  96 CALM      30.15R
$$




USA.gov is the U.S. government's official web portal to all federal, state and local government web resources and services.